Corpus Christi, TX

4:28 AM CST on December 09, 2016 (GMT -0600)
Corpus Christi Naval Air Station-Truax

Weather History for KNGP - July, 2013

Change the Weather History Date:

Saturday, July 27, 2013

  Actual Average Record
Temperature  
Mean Temperature 86 °F -  
Max Temperature 91 °F 89 °F 93 °F (1998)
Min Temperature 81 °F 76 °F 75 °F (1996)
Cooling Degree Days 21    
Growing Degree Days 36 (Base 50)    
Moisture  
Dew Point 78 °F    
Average Humidity 81    
Maximum Humidity 91    
Minimum Humidity 61    
Precipitation  
Precipitation 0.00 in - - ()
Sea Level Pressure  
Sea Level Pressure 29.90 in    
Wind  
Wind Speed 15 mph (South)    
Max Wind Speed 25 mph    
Max Gust Speed 31 mph    
Visibility 10 miles    
Events      
Averages and records for this station are not official NWS values.
T = Trace of Precipitation, MM = Missing Value Source: NWS Daily Summary

Daily Weather History Graph

Daily Weather History Graph

Search for Another Location

Airport or City:

Trip Planner

Search our weather history database for the weather conditions in past years. The results will help you decide how hot, cold, wet, or windy it might be!

Date:

Astronomy

Jul. 27, 2013 Rise Set
Actual Time 6:49 AM CDT 8:21 PM CDT
Civil Twilight 6:24 AM CDT 8:46 PM CDT
Nautical Twilight 5:53 AM CDT 9:17 PM CDT
Astronomical Twilight 5:21 AM CDT 9:48 PM CDT
Moon 11:47 PM CDT (7/27) 11:56 AM CDT (7/27)
Length of Visible Light 14h 22m
Length of Day
13h 31m
Waning Gibbous, 70% of the Moon is Illuminated
Jul 27
Waning Gibbous
Jul 29
Last Quarter
Aug 6
New
Aug 14
First Quarter
Aug 20
Full

Hourly Weather History & Observations

Time (CDT) Temp. Heat Index Dew Point Humidity Pressure Visibility Wind Dir Wind Speed Gust Speed Precip Events Conditions
12:56 AM 82.0 °F 91.0 °F 78.1 °F 88% 29.94 in 10.0 mi South 18.4 mph 25.3 mph N/A   Partly Cloudy
1:56 AM 81.0 °F 88.6 °F 78.1 °F 91% 29.94 in 10.0 mi South 13.8 mph 23.0 mph N/A   Clear
2:56 AM 81.0 °F 88.6 °F 78.1 °F 91% 29.93 in 10.0 mi South 11.5 mph 19.6 mph N/A   Clear
3:56 AM 81.0 °F 87.9 °F 77.0 °F 88% 29.90 in 10.0 mi South 15.0 mph - N/A   Clear
4:56 AM 81.0 °F 88.6 °F 78.1 °F 91% 29.89 in 10.0 mi South 16.1 mph 24.2 mph N/A   Clear
5:56 AM 81.0 °F 88.6 °F 78.1 °F 91% 29.90 in 10.0 mi South 11.5 mph 19.6 mph N/A   Clear
6:56 AM 81.0 °F 88.6 °F 78.1 °F 91% 29.90 in 9.0 mi South 12.7 mph 20.7 mph N/A   Partly Cloudy
7:56 AM 81.0 °F 88.6 °F 78.1 °F 91% 29.92 in 9.0 mi South 9.2 mph 19.6 mph N/A   Clear
8:56 AM 82.9 °F 92.8 °F 78.1 °F 85% 29.94 in 10.0 mi South 11.5 mph - N/A   Clear
9:56 AM 84.9 °F 96.6 °F 78.1 °F 80% 29.96 in 10.0 mi South 6.9 mph - N/A   Scattered Clouds
10:56 AM 86.0 °F 98.3 °F 78.1 °F 77% 29.95 in 10.0 mi SE 9.2 mph - N/A   Scattered Clouds
11:56 AM 86.0 °F 96.9 °F 77.0 °F 74% 29.94 in 10.0 mi South 11.5 mph - N/A   Clear
12:56 PM 88.0 °F 101.3 °F 78.1 °F 72% 29.92 in 10.0 mi SSE 16.1 mph 20.7 mph N/A   Clear
1:56 PM 90.0 °F 104.5 °F 78.1 °F 68% 29.90 in 10.0 mi SSE 18.4 mph 25.3 mph N/A   Clear
2:56 PM 90.0 °F 102.5 °F 77.0 °F 65% 29.89 in 10.0 mi SSE 20.7 mph 26.5 mph N/A   Clear
3:56 PM 91.0 °F 102.9 °F 75.9 °F 61% 29.87 in 10.0 mi SSE 18.4 mph 26.5 mph N/A   Clear
4:56 PM 89.1 °F 100.2 °F 75.9 °F 65% 29.84 in 10.0 mi SSE 25.3 mph 31.1 mph N/A   Clear
5:56 PM 88.0 °F 100.2 °F 77.0 °F 70% 29.83 in 10.0 mi SSE 23.0 mph 29.9 mph N/A   Clear
6:56 PM 84.9 °F 95.3 °F 77.0 °F 77% 29.83 in 9.0 mi SSE 18.4 mph 29.9 mph N/A   Clear
7:56 PM 84.0 °F 93.7 °F 77.0 °F 79% 29.86 in 9.0 mi SSE 19.6 mph - N/A   Partly Cloudy
8:56 PM 82.9 °F 91.8 °F 77.0 °F 82% 29.87 in 10.0 mi South 16.1 mph 23.0 mph N/A   Overcast
9:56 PM 82.9 °F 92.8 °F 78.1 °F 85% 29.86 in 10.0 mi South 18.4 mph 25.3 mph N/A   Clear
10:56 PM 82.9 °F 93.8 °F 79.0 °F 88% 29.86 in 10.0 mi South 19.6 mph 26.5 mph N/A   Clear
11:56 PM 82.0 °F 91.6 °F 79.0 °F 90% 29.88 in 10.0 mi South 12.7 mph 21.9 mph N/A   Clear